This is the latest recevied weather packets stored in our database for station/object XE2RCS-1. If no packets are shown the sender has not sent any weather packets the latest 10 day(s).
| Time | Temp. | Humidity | Pressure | Rain* | Wind** | Luminosity | Snow |
|---|---|---|---|---|---|---|---|
| 1777987675 | 20.56° C | 50% | 1014 hPa | 0 mm | - | - | - |
| 1777987074 | 20.56° C | 50% | 1014 hPa | 0 mm | - | - | - |
| 1777986474 | 20.56° C | 49% | 1014 hPa | 0 mm | - | - | - |
| 1777985873 | 20.56° C | 45% | 1013 hPa | 0 mm | - | - | - |
| 1777985272 | 19.44° C | 57% | 1012 hPa | 0 mm | - | - | - |
| 1777984671 | 19.44° C | 56% | 1012 hPa | 0 mm | - | - | - |
| 1777984070 | 19.44° C | 51% | 1014 hPa | 0 mm | - | - | - |
| 1777983470 | 19.44° C | 51% | 1014 hPa | 0 mm | - | - | - |
| 1777982869 | 20° C | 50% | 1014 hPa | 0 mm | - | - | - |
| 1777982269 | 20° C | 49% | 1012 hPa | 0 mm | - | - | - |
| 1777981668 | 20.56° C | 42% | 1012 hPa | 0 mm | - | - | - |
| 1777981067 | 20.56° C | 41% | 1012 hPa | 0 mm | - | - | - |
| 1777980467 | 20° C | 38% | 1013 hPa | 0 mm | - | - | - |
| 1777979866 | 20° C | 38% | 1013 hPa | 0 mm | - | - | - |
| 1777979266 | 21.11° C | 39% | 1013 hPa | 0 mm | - | - | - |
| 1777978665 | 21.11° C | 41% | 1011 hPa | 0 mm | - | - | - |
| 1777978064 | 21.67° C | 40% | 1011 hPa | 0 mm | - | - | - |
| 1777977464 | 21.67° C | 40% | 1011 hPa | 0 mm | - | - | - |
| 1777976863 | 21.11° C | 41% | 1013 hPa | 0 mm | - | - | - |
| 1777976263 | 21.11° C | 41% | 1013 hPa | 0 mm | - | - | - |
| 1777975662 | 21.11° C | 39% | 1013 hPa | 0 mm | - | - | - |
| 1777975061 | 21.11° C | 36% | 1011 hPa | 0 mm | - | - | - |
| 1777974461 | 21.11° C | 36% | 1010 hPa | 0 mm | - | - | - |
| 1777973860 | 21.11° C | 36% | 1010 hPa | 0 mm | - | - | - |
| 1777973260 | 21.11° C | 41% | 1011 hPa | 0 mm | - | - | - |
* Rain latest hour (hover to see other rain measurements)
** Current wind speed in m/s (hover to see current wind gust speed)